N1JFY Weather Reports


time (UTC)temp
F
wind
direction
speed
knots
gust
knots
rain 1hr
in
rain 24hr
in
rain mn
in
humidity
%
barometer
mb
20260506230100 53 173 5.2 12.2 0.09 0.47 0.40 94 1004.0
20260506224607 53 182 4.3 10.4 0.10 0.45 0.38 94 1004.0
20260506223058 53 175 5.2 11.3 0.10 0.43 0.36 94 1004.1
20260506221557 53 181 4.3 10.4 0.10 0.40 0.33 94 1004.1
20260506220059 53 188 6.1 14.8 0.10 0.38 0.31 94 1004.1
20260506214609 53 201 5.2 12.2 0.09 0.35 0.28 94 1004.1
20260506213055 53 182 6.1 13.0 0.09 0.33 0.26 94 1004.1
20260506211554 53 184 6.1 10.4 0.08 0.30 0.23 94 1004.4
20260506210054 53 139 4.3 11.3 0.07 0.28 0.21 94 1004.3
20260506204602 53 194 6.1 11.3 0.07 0.26 0.19 94 1004.5
20260506203052 54 149 3.5 7.8 0.06 0.24 0.17 94 1004.5
20260506201551 54 166 0.9 7.0 0.05 0.22 0.15 94 1004.4
20260506200048 54 182 4.3 8.7 0.06 0.21 0.14 93 1004.8
20260506194559 54 173 0.0 7.0 0.04 0.19 0.12 93 1004.8
20260506193049 54 168 3.5 5.2 0.04 0.18 0.11 93 1005.3
20260506191545 54 181 3.5 8.7 0.03 0.17 0.10 93 1005.2
20260506190045 54 198 4.3 10.4 0.02 0.15 0.08 93 1005.0
20260506184544 54 163 0.0 5.2 0.04 0.15 0.08 93 1005.0
20260506183046 53 133 0.0 4.3 0.04 0.14 0.07 93 1005.2
20260506181547 53 136 0.0 2.6 0.05 0.14 0.07 93 1005.6
20260506180049 53 178 0.0 0.0 0.04 0.13 0.06 92 1006.1
20260506174542 53 164 0.9 3.5 0.03 0.11 0.04 92 1006.4
20260506173042 53 165 0.0 3.5 0.02 0.10 0.03 91 1006.4
20260506171552 53 147 0.0 0.0 0.01 0.09 0.02 89 1006.6
20260506170043 54 141 0.0 2.6 0.01 0.09 0.02 88 1006.9
20260506164541 53 169 0.0 1.7 0.00 0.08 0.01 87 1007.1
20260506163044 53 175 0.0 8.7 0.00 0.08 0.01 87 1007.3
20260506161540 53 98 0.0 0.9 0.00 0.08 0.01 89 1007.0
20260506160041 52 113 1.7 7.0 0.00 0.08 0.01 89 1007.0
20260506154542 52 113 0.9 9.6 0.00 0.08 0.01 89 1006.8
20260506153038 52 103 0.0 7.8 0.00 0.08 0.01 89 1007.3
20260506151538 52 82 0.0 0.9 0.00 0.08 0.01 89 1007.7
20260506150037 52 161 1.7 6.1 0.00 0.08 0.01 89 1008.1
20260506144541 52 115 1.7 4.3 0.00 0.08 0.01 88 1008.1
20260506143037 52 118 0.0 0.0 0.00 0.08 0.01 88 1008.4
20260506141536 52 109 0.0 0.0 0.00 0.08 0.01 88 1008.6
20260506140048 52 128 0.0 0.0 0.00 0.08 0.01 88 1008.9
20260506134538 52 132 0.0 0.0 0.00 0.08 0.01 88 1008.7
20260506133044 52 168 0.0 0.0 0.00 0.08 0.01 87 1008.6
20260506131536 52 157 0.0 0.0 0.00 0.08 0.01 88 1008.3
20260506130037 51 148 0.0 0.9 0.00 0.08 0.01 87 1008.3
20260506124533 51 127 2.6 6.1 0.00 0.08 0.01 87 1008.4
20260506123033 51 170 1.7 5.2 0.00 0.08 0.01 87 1008.1
20260506121532 50 153 0.0 0.0 0.00 0.08 0.01 86 1008.2
20260506120038 50 134 0.0 0.0 0.00 0.08 0.01 87 1008.6
20260506114531 50 360 0.0 0.0 0.00 0.08 0.01 86 1008.6
20260506113031 49 360 0.0 0.0 0.00 0.08 0.01 87 1008.4
20260506111530 49 360 0.0 0.0 0.00 0.08 0.01 87 1008.6
20260506110034 49 360 0.0 6.1 0.00 0.08 0.01 86 1008.8
20260506104530 49 323 5.2 7.8 0.00 0.08 0.01 88 1008.7
20260506103032 49 360 2.6 6.1 0.01 0.08 0.01 88 1008.5
20260506101537 49 12 0.0 5.2 0.01 0.08 0.01 88 1008.4
20260506100031 50 360 3.5 8.7 0.01 0.08 0.01 86 1008.1
20260506094522 51 360 3.5 10.4 0.01 0.08 0.01 89 1008.9
20260506093019 51 360 0.0 0.0 0.00 0.07 0.00 93 1008.3
20260506091518 51 237 0.0 0.0 0.00 0.07 0.00 93 1008.4
20260506090014 51 199 0.0 0.0 0.00 0.07 0.00 92 1007.8
20260506084513 51 215 0.0 0.0 0.00 0.07 0.00 92 1007.5
20260506083012 51 213 0.0 0.0 0.00 0.07 0.00 91 1007.4
20260506081510 51 213 0.0 0.0 0.00 0.07 0.00 90 1007.7
20260506073003 52 221 4.3 7.0 0.00 0.07 0.00 88 1006.8
20260506071600 52 194 2.6 9.6 0.00 0.07 0.00 88 1006.6
20260506061555 53 192 3.5 7.0 0.00 0.07 0.00 89 1005.6
20260506044538 55 198 4.3 9.6 0.00 0.07 0.00 88 1005.3
20260506043036 55 205 4.3 9.6 0.00 0.07 0.00 90 1005.6
20260506041533 55 201 4.3 11.3 0.00 0.07 0.00 89 1005.3
20260506040037 55 225 1.7 6.1 0.00 0.07 0.00 90 1004.9
20260506034530 56 205 2.6 6.1 0.00 0.07 0.07 91 1004.6
20260506033033 56 218 0.0 6.1 0.00 0.07 0.07 91 1004.5
20260506031527 56 209 0.9 7.8 0.00 0.07 0.07 91 1004.4
20260506030028 56 183 3.5 9.6 0.01 0.07 0.07 91 1004.3
20260506024530 56 215 0.9 7.8 0.01 0.07 0.07 91 1004.2
20260506023029 56 205 2.6 7.0 0.02 0.07 0.07 91 1004.1
20260506021532 57 196 4.3 7.0 0.02 0.07 0.07 90 1003.9
20260506020029 57 204 2.6 8.7 0.03 0.06 0.06 89 1003.9
20260506014526 57 194 2.6 9.6 0.05 0.06 0.06 90 1004.3
20260506013025 57 180 3.5 8.7 0.05 0.05 0.05 89 1004.1
20260506011528 57 209 2.6 7.0 0.04 0.04 0.04 88 1004.3
20260506010042 58 215 3.5 9.6 0.03 0.03 0.03 87 1004.2
20260506004525 59 231 5.2 13.9 0.01 0.01 0.01 83 1004.3
20260506003023 60 218 7.8 13.9 0.00 0.00 0.00 79 1004.4
20260506001632 61 201 4.3 13.9 0.00 0.00 0.00 79 1004.2
20260506000021 60 194 0.9 6.1 0.00 0.00 0.00 80 1004.0
20260505234533 60 236 0.0 0.0 0.00 0.00 0.00 81 1004.1
20260505233029 60 245 0.0 0.9 0.00 0.00 0.00 80 1003.5
20260505231519 60 234 0.0 1.7 0.00 0.00 0.00 80 1003.2